Hourly Weather Suhar

Today, 17 January, Sunday

Time Temperature Precipitation Wind Pressure Humidity
00:00 +18°C° 0 mm 1 mps 758 mmHg 57%
01:00 +18°C° 0 mm 1 mps 758 mmHg 57%
02:00 +18°C° 0 mm 1 mps 758 mmHg 57%
03:00 +16°C° 0 mm 1 mps 758 mmHg 58%
04:00 +15°C° 0 mm 0 mps 758 mmHg 57%
05:00 +15°C° 0 mm 0 mps 758 mmHg 58%
06:00 +15°C° 0 mm 0 mps 759 mmHg 59%
07:00 +14°C° 0 mm 0 mps 759 mmHg 60%
08:00 +18°C° 0 mm 0 mps 759 mmHg 47%
09:00 +24°C° 0 mm 1 mps 759 mmHg 33%
10:00 +27°C° 0 mm 1 mps 760 mmHg 20%
11:00 +28°C° 0 mm 1 mps 759 mmHg 21%
12:00 +29°C° 0 mm 2 mps 759 mmHg 22%
13:00 +30°C° 0 mm 3 mps 758 mmHg 23%
14:00 +29°C° 0 mm 3 mps 758 mmHg 25%
15:00 +29°C° 0 mm 3 mps 758 mmHg 28%
16:00 +28°C° 0 mm 3 mps 757 mmHg 31%
17:00 +26°C° 0 mm 2 mps 758 mmHg 41%
18:00 +23°C° 0 mm 1 mps 758 mmHg 51%
19:00 +21°C° 0 mm 1 mps 759 mmHg 60%
20:00 +20°C° 0 mm 1 mps 759 mmHg 59%
21:00 +20°C° 0 mm 1 mps 759 mmHg 57%
22:00 +20°C° 0 mm 1 mps 759 mmHg 56%
23:00 +20°C° 0 mm 1 mps 759 mmHg 53%

Tomorrow, 18 January, Monday

Time Temperature Precipitation Wind Pressure Humidity
00:00 +20°C° 0 mm 1 mps 759 mmHg 51%
01:00 +20°C° 0 mm 1 mps 759 mmHg 48%
02:00 +20°C° 0 mm 1 mps 759 mmHg 50%
03:00 +20°C° 0 mm 1 mps 759 mmHg 51%
04:00 +20°C° 0 mm 1 mps 758 mmHg 53%
05:00 +20°C° 0 mm 1 mps 759 mmHg 54%
06:00 +21°C° 0 mm 1 mps 759 mmHg 55%
07:00 +21°C° 0 mm 1 mps 760 mmHg 56%
08:00 +24°C° 0 mm 1 mps 760 mmHg 46%
09:00 +27°C° 0 mm 1 mps 761 mmHg 37%
10:00 +29°C° 0 mm 0 mps 761 mmHg 27%
11:00 +31°C° 0 mm 1 mps 760 mmHg 25%
12:00 +32°C° 0 mm 2 mps 760 mmHg 23%
13:00 +34°C° 0 mm 3 mps 760 mmHg 21%
14:00 +33°C° 0 mm 3 mps 759 mmHg 22%
15:00 +33°C° 0 mm 3 mps 759 mmHg 23%
16:00 +33°C° 0 mm 3 mps 759 mmHg 24%
17:00 +29°C° 0 mm 2 mps 759 mmHg 32%
18:00 +26°C° 0 mm 1 mps 760 mmHg 39%
19:00 +23°C° 0 mm 1 mps 760 mmHg 46%
20:00 +22°C° 0 mm 1 mps 760 mmHg 47%
21:00 +22°C° 0 mm 1 mps 760 mmHg 47%
22:00 +21°C° 0 mm 2 mps 761 mmHg 47%
23:00 +21°C° 0 mm 2 mps 760 mmHg 45%

Day after tomorrow, 19 January, Tuesday

Time Temperature Precipitation Wind Pressure Humidity
00:00 +21°C° 0 mm 2 mps 760 mmHg 42%
01:00 +21°C° 0 mm 2 mps 760 mmHg 40%
02:00 +21°C° 0 mm 2 mps 760 mmHg 39%
03:00 +21°C° 0 mm 2 mps 760 mmHg 37%
04:00 +21°C° 0 mm 2 mps 760 mmHg 36%
05:00 +21°C° 0 mm 2 mps 760 mmHg 35%
06:00 +21°C° 0 mm 2 mps 760 mmHg 35%
07:00 +21°C° 0 mm 2 mps 761 mmHg 35%
08:00 +25°C° 0 mm 2 mps 761 mmHg 30%
09:00 +27°C° 0 mm 2 mps 761 mmHg 25%
10:00 +30°C° 0 mm 3 mps 761 mmHg 20%
11:00 +31°C° 0 mm 3 mps 761 mmHg 20%
12:00 +33°C° 0 mm 4 mps 760 mmHg 19%
13:00 +34°C° 0 mm 5 mps 760 mmHg 19%
14:00 +34°C° 0 mm 5 mps 760 mmHg 20%
15:00 +33°C° 0 mm 5 mps 759 mmHg 21%
16:00 +33°C° 0 mm 6 mps 759 mmHg 22%
17:00 +30°C° 0 mm 5 mps 759 mmHg 24%
18:00 +28°C° 0 mm 5 mps 760 mmHg 27%
19:00 +25°C° 0 mm 5 mps 760 mmHg 30%
20:00 +25°C° 0 mm 4 mps 760 mmHg 31%
21:00 +24°C° 0 mm 3 mps 760 mmHg 32%
22:00 +22°C° 0 mm 3 mps 760 mmHg 33%
23:00 +22°C° 0 mm 3 mps 760 mmHg 31%

20 January, Wednesday

Time Temperature Precipitation Wind Pressure Humidity
00:00 +21°C° 0 mm 3 mps 760 mmHg 29%
01:00 +21°C° 0 mm 3 mps 760 mmHg 27%
02:00 +20°C° 0 mm 3 mps 760 mmHg 27%
03:00 +20°C° 0 mm 3 mps 760 mmHg 27%
04:00 +19°C° 0 mm 3 mps 760 mmHg 27%
05:00 +19°C° 0 mm 3 mps 760 mmHg 28%
06:00 +18°C° 0 mm 2 mps 761 mmHg 29%
07:00 +18°C° 0 mm 2 mps 761 mmHg 31%
08:00 +21°C° 0 mm 2 mps 761 mmHg 26%
09:00 +25°C° 0 mm 1 mps 761 mmHg 22%
10:00 +28°C° 0 mm 1 mps 762 mmHg 17%
11:00 +29°C° 0 mm 2 mps 761 mmHg 19%
12:00 +29°C° 0 mm 3 mps 761 mmHg 21%
13:00 +30°C° 0 mm 4 mps 760 mmHg 24%
14:00 +30°C° 0 mm 3 mps 760 mmHg 26%
15:00 +29°C° 0 mm 3 mps 759 mmHg 28%
16:00 +29°C° 0 mm 3 mps 759 mmHg 30%
17:00 +26°C° 0 mm 2 mps 759 mmHg 37%
18:00 +24°C° 0 mm 2 mps 760 mmHg 45%
19:00 +21°C° 0 mm 1 mps 760 mmHg 53%
20:00 +21°C° 0 mm 1 mps 760 mmHg 51%
21:00 +20°C° 0 mm 2 mps 761 mmHg 50%
22:00 +20°C° 0 mm 2 mps 761 mmHg 49%
23:00 +21°C° 0 mm 1 mps 761 mmHg 49%

21 January, Thursday

Time Temperature Precipitation Wind Pressure Humidity
00:00 +21°C° 0 mm 1 mps 761 mmHg 49%
01:00 +21°C° 0 mm 1 mps 760 mmHg 48%
02:00 +21°C° 0 mm 1 mps 760 mmHg 44%
03:00 +21°C° 0 mm 1 mps 760 mmHg 39%
04:00 +20°C° 0 mm 2 mps 760 mmHg 34%
05:00 +20°C° 0 mm 2 mps 760 mmHg 33%
06:00 +20°C° 0 mm 2 mps 760 mmHg 32%
07:00 +21°C° 0 mm 2 mps 761 mmHg 32%
08:00 +25°C° 0 mm 3 mps 761 mmHg 28%
09:00 +28°C° 0 mm 3 mps 761 mmHg 24%
10:00 +31°C° 0 mm 3 mps 762 mmHg 21%
11:00 +33°C° 0 mm 5 mps 761 mmHg 21%
12:00 +33°C° 0 mm 6 mps 761 mmHg 21%
13:00 +33°C° 0 mm 7 mps 761 mmHg 22%
14:00 +33°C° 0 mm 7 mps 760 mmHg 24%
15:00 +32°C° 0 mm 7 mps 760 mmHg 27%
16:00 +32°C° 0 mm 8 mps 760 mmHg 30%
17:00 +28°C° 0 mm 7 mps 761 mmHg 35%
18:00 +26°C° 0 mm 6 mps 761 mmHg 40%
19:00 +23°C° 0 mm 6 mps 762 mmHg 46%
20:00 +21°C° 0 mm 6 mps 762 mmHg 47%
21:00 +20°C° 0 mm 6 mps 762 mmHg 48%
22:00 +19°C° 0 mm 6 mps 762 mmHg 50%
23:00 +17°C° 0 mm 6 mps 762 mmHg 50%

22 January, Friday

Time Temperature Precipitation Wind Pressure Humidity
00:00 +17°C° 0 mm 6 mps 762 mmHg 51%
01:00 +16°C° 0 mm 6 mps 762 mmHg 52%
02:00 +16°C° 0 mm 6 mps 762 mmHg 56%
03:00 +15°C° 0 mm 6 mps 762 mmHg 60%
04:00 +14°C° 0 mm 6 mps 761 mmHg 64%
05:00 +14°C° 0 mm 6 mps 762 mmHg 67%
06:00 +14°C° 0 mm 6 mps 762 mmHg 69%
07:00 +13°C° 0 mm 5 mps 763 mmHg 72%
08:00 +15°C° 0 mm 5 mps 763 mmHg 62%
09:00 +19°C° 0 mm 4 mps 763 mmHg 52%
10:00 +21°C° 0 mm 3 mps 764 mmHg 43%
11:00 +22°C° 0 mm 3 mps 763 mmHg 40%
12:00 +23°C° 0 mm 4 mps 762 mmHg 38%
13:00 +25°C° 0 mm 4 mps 762 mmHg 35%
14:00 +25°C° 0 mm 4 mps 762 mmHg 38%
15:00 +25°C° 0 mm 4 mps 761 mmHg 41%
16:00 +23°C° 0 mm 4 mps 761 mmHg 44%
17:00 +21°C° 0 mm 4 mps 761 mmHg 52%
18:00 +20°C° 0 mm 3 mps 761 mmHg 60%
19:00 +18°C° 0 mm 2 mps 762 mmHg 69%
20:00 +18°C° 0 mm 2 mps 762 mmHg 72%
21:00 +17°C° 0 mm 2 mps 762 mmHg 75%
22:00 +17°C° 0 mm 3 mps 762 mmHg 78%
23:00 +16°C° 0 mm 2 mps 762 mmHg 78%
Show more